DW9907 Weather Reports


time (UTC)temp
F
wind
direction
speed
knots
gust
knots
rain 1hr
in
rain 24hr
in
rain mn
in
humidity
%
barometer
mb
20260906200034 94 185 12.2 19.1 0.00 0.01 0.00 36 1014.1
20260906194534 93 185 12.2 17.4 0.00 0.01 0.00 38 1014.4
20260906193040 92 185 10.4 18.2 0.00 0.01 0.00 37 1014.7
20260906191534 91 180 7.8 12.2 0.00 0.01 0.00 43 1014.8
20260906190036 91 185 6.1 11.3 0.00 0.01 0.00 47 1015.1
20260906184535 89 185 3.5 8.7 0.00 0.01 0.00 47 1015.3
20260906183033 90 185 4.3 8.7 0.00 0.01 0.00 46 1015.6
20260906181544 88 185 2.6 7.0 0.00 0.01 0.00 48 1015.9
20260906180040 86 185 1.7 4.3 0.00 0.01 0.00 50 1016.3
20260906174532 85 185 0.0 2.6 0.00 0.01 0.00 54 1016.7
20260906173033 85 185 0.9 3.5 0.00 0.01 0.00 53 1017.2
20260906171534 85 185 2.6 5.2 0.00 0.01 0.00 51 1017.5
20260906170033 85 0 1.7 7.8 0.00 0.01 0.00 50 1017.6
20260906164535 85 185 4.3 10.4 0.00 0.01 0.00 52 1017.6
20260906163046 85 185 8.7 13.0 0.00 0.01 0.00 52 1017.4
20260906161542 86 185 8.7 13.0 0.00 0.01 0.00 51 1017.5
20260906160037 85 185 7.8 13.0 0.00 0.01 0.00 53 1017.3
20260906154537 85 185 7.8 13.0 0.00 0.01 0.00 54 1017.3
20260906153034 83 185 3.5 7.8 0.00 0.01 0.00 57 1017.2
20260906151538 83 185 5.2 10.4 0.00 0.01 0.00 56 1017.2
20260906150035 81 185 3.5 7.0 0.00 0.01 0.00 61 1017.3
20260906144539 81 185 4.3 7.8 0.00 0.01 0.00 63 1017.1
20260906143037 79 185 6.1 7.8 0.00 0.01 0.00 65 1016.8
20260906141533 76 185 5.2 7.8 0.00 0.01 0.00 69 1016.6
20260906140037 75 180 4.3 8.7 0.00 0.01 0.00 73 1016.4
20260906134538 74 185 3.5 7.0 0.00 0.01 0.00 75 1016.4
20260906133045 73 185 5.2 8.7 0.00 0.01 0.00 74 1016.1
20260906131537 72 185 7.0 8.7 0.00 0.01 0.00 77 1016.0
20260906130037 70 180 4.3 7.8 0.00 0.01 0.00 78 1015.7
20260906124534 70 185 5.2 8.7 0.00 0.01 0.00 78 1015.4
20260906123040 70 185 5.2 7.8 0.00 0.01 0.00 78 1015.3
20260906121544 70 185 5.2 7.8 0.00 0.01 0.00 77 1015.3
20260906120036 70 185 5.2 7.8 0.00 0.01 0.00 77 1015.0
20260906114538 71 180 4.3 7.8 0.00 0.01 0.00 76 1014.8
20260906113034 71 185 6.1 8.7 0.00 0.01 0.00 76 1014.6
20260906111532 72 185 5.2 8.7 0.00 0.01 0.00 75 1014.5
20260906110035 72 185 5.2 7.8 0.00 0.01 0.00 73 1014.6
20260906104535 73 185 4.3 7.0 0.00 0.01 0.00 70 1014.7
20260906103033 74 185 3.5 7.0 0.00 0.01 0.00 67 1014.8
20260906101536 75 185 3.5 7.0 0.00 0.01 0.00 65 1014.7
20260906100039 76 185 3.5 4.3 0.00 0.01 0.00 63 1014.6
20260906094534 77 185 2.6 7.8 0.00 0.01 0.00 62 1014.7
20260906093047 77 180 4.3 7.8 0.00 0.01 0.00 59 1014.8
20260906091532 78 180 3.5 7.8 0.00 0.01 0.00 59 1014.8
20260906090036 78 185 6.1 9.6 0.00 0.01 0.00 57 1014.5
20260906084534 78 185 6.1 10.4 0.00 0.01 0.00 57 1014.8
20260906083036 78 180 7.8 11.3 0.00 0.01 0.00 57 1014.6
20260906081547 78 180 7.8 11.3 0.00 0.01 0.00 59 1014.5
20260906080036 78 185 6.1 10.4 0.00 0.01 0.00 60 1014.4
20260906074536 79 185 3.5 12.2 0.00 0.01 0.00 60 1014.6
20260906073048 79 180 6.1 11.3 0.00 0.01 0.00 59 1014.5
20260906071533 78 185 7.8 12.2 0.00 0.01 0.00 60 1014.4
20260906070039 77 180 6.1 13.0 0.00 0.01 0.00 64 1014.4
20260906064533 77 185 6.1 10.4 0.00 0.01 0.00 63 1014.4
20260906063034 76 185 7.0 10.4 0.00 0.01 0.00 69 1014.5
20260906061535 76 185 8.7 12.2 0.00 0.01 0.00 68 1014.5
20260906060038 75 185 7.8 12.2 0.00 0.01 0.00 72 1014.3
20260906054537 75 185 7.0 11.3 0.00 0.01 0.00 73 1014.4
20260906053038 75 180 8.7 10.4 0.00 0.01 0.00 74 1014.4
20260906051535 76 180 8.7 11.3 0.00 0.01 0.00 73 1014.3
20260906050048 76 180 10.4 13.9 0.00 0.01 0.00 71 1014.1
20260906044536 76 185 11.3 13.9 0.00 0.01 0.01 71 1013.9
20260906043044 76 180 10.4 13.0 0.00 0.01 0.01 72 1014.0
20260906041537 76 185 9.6 11.3 0.00 0.01 0.01 72 1014.3
20260906040045 75 185 4.3 7.0 0.00 0.01 0.01 73 1014.3
20260906034534 75 185 2.6 7.0 0.00 0.01 0.01 73 1014.3
20260906033034 76 185 3.5 8.7 0.00 0.01 0.01 73 1014.1
20260906031534 75 185 4.3 10.4 0.00 0.01 0.01 75 1014.1
20260906030033 75 185 7.8 10.4 0.00 0.01 0.01 76 1013.6
20260906024537 75 185 10.4 13.0 0.00 0.01 0.01 76 1013.2
20260906023037 75 185 8.7 11.3 0.00 0.01 0.01 75 1013.0
20260906021535 74 185 7.0 10.4 0.00 0.01 0.01 77 1013.1
20260906020032 75 185 7.8 13.9 0.00 0.01 0.01 77 1012.9
20260906014543 75 185 13.0 19.1 0.00 0.01 0.01 77 1012.7
20260906013034 75 185 15.6 20.9 0.00 0.01 0.01 78 1012.8
20260906011544 75 185 16.5 20.9 0.00 0.01 0.01 79 1012.7
20260906010034 75 185 17.4 23.5 0.00 0.01 0.01 78 1013.1
20260906004533 76 185 18.2 24.3 0.00 0.01 0.01 77 1013.1
20260906003035 75 185 20.0 26.1 0.00 0.01 0.01 79 1012.9
20260906001534 73 185 15.6 21.7 0.01 0.01 0.01 86 1013.1
20260906000038 73 185 13.9 21.7 0.01 0.01 0.01 85 1013.6
20260905234550 73 185 13.0 20.9 0.01 0.01 0.01 82 1013.4
20260905233035 77 185 13.9 28.7 0.01 0.01 0.01 74 1013.3
20260905231538 82 185 16.5 27.8 0.00 0.00 0.00 62 1012.9
20260905230041 87 185 13.9 19.1 0.00 0.00 0.00 53 1012.7
20260905224538 94 185 16.5 20.9 0.00 0.00 0.00 40 1012.2
20260905223038 97 185 15.6 24.3 0.00 0.00 0.00 33 1011.8
20260905221536 98 180 17.4 22.6 0.00 0.00 0.00 32 1011.5
20260905220035 100 185 8.7 18.2 0.00 0.00 0.00 31 1011.6
20260905214534 98 185 7.0 10.4 0.00 0.00 0.00 31 1011.7
20260905213037 97 180 7.0 15.6 0.00 0.00 0.00 33 1011.7
20260905211609 97 180 9.6 16.5 0.00 0.00 0.00 33 1011.8
20260905210034 97 185 9.6 21.7 0.00 0.00 0.00 32 1012.2
20260905204535 97 180 8.7 13.9 0.00 0.00 0.00 33 1012.2
20260905203037 98 185 5.2 16.5 0.00 0.00 0.00 32 1012.6
20260905201537 99 185 9.6 20.0 0.00 0.00 0.00 31 1012.9